| time (UTC) | temp F | wind direction | speed MPH | gust MPH | rain 1hr in | rain 24hr in | rain mn in | humidity % | barometer mb |
| 20260505053022 | 41 | 218 | 2.0 | 4.0 | 0.00 | 0.78 | 0.00 | 92 | 1014.2 |
| 20260505052017 | 41 | 221 | 2.0 | 4.0 | 0.00 | 0.78 | 0.00 | 93 | 1014.3 |
| 20260505051112 | 41 | 203 | 1.0 | 2.0 | 0.00 | 0.78 | 0.00 | 93 | 1014.1 |
| 20260505050148 | 41 | 203 | 1.0 | 2.0 | 0.00 | 0.78 | 0.00 | 93 | 1014.2 |
| 20260505041043 | 41 | 225 | 1.0 | 2.0 | 0.00 | 0.78 | 0.00 | 94 | 1014.2 |
| 20260505040038 | 41 | 213 | 3.0 | 4.0 | 0.00 | 0.78 | 0.00 | 94 | 1014.4 |
| 20260505035033 | 41 | 215 | 1.0 | 4.0 | 0.00 | 0.78 | 0.00 | 94 | 1014.5 |
| 20260505034028 | 41 | 235 | 2.0 | 4.0 | 0.00 | 0.78 | 0.00 | 94 | 1014.3 |
| 20260505033023 | 41 | 283 | 2.0 | 4.0 | 0.00 | 0.78 | 0.00 | 94 | 1014.2 |
| 20260505032018 | 41 | 0.0 | 2.0 | 0.00 | 0.78 | 0.00 | 94 | 1014.3 | |
| 20260505031133 | 41 | 293 | 0.0 | 2.0 | 0.00 | 0.78 | 0.00 | 94 | 1014.2 |
| 20260505030109 | 41 | 248 | 0.0 | 2.0 | 0.00 | 0.78 | 0.00 | 94 | 1014.5 |
| 20260505025104 | 41 | 268 | 3.0 | 4.0 | 0.00 | 0.78 | 0.00 | 93 | 1014.2 |
| 20260505024059 | 42 | 250 | 1.0 | 4.0 | 0.00 | 0.78 | 0.00 | 93 | 1014.3 |
| 20260505023054 | 42 | 262 | 2.0 | 7.0 | 0.00 | 0.78 | 0.00 | 93 | 1014.1 |
| 20260505022049 | 42 | 358 | 1.0 | 4.0 | 0.00 | 0.78 | 0.00 | 93 | 1014.1 |
| 20260505021044 | 42 | 82 | 3.0 | 6.0 | 0.00 | 0.78 | 0.00 | 93 | 1014.0 |
| 20260505020058 | 41 | 356 | 1.0 | 4.0 | 0.00 | 0.78 | 0.00 | 93 | 1014.0 |
| 20260505015033 | 41 | 10 | 2.0 | 4.0 | 0.00 | 0.78 | 0.00 | 93 | 1014.2 |
| 20260505014030 | 41 | 36 | 0.0 | 4.0 | 0.00 | 0.78 | 0.00 | 92 | 1014.2 |
| 20260505013023 | 41 | 51 | 1.0 | 4.0 | 0.00 | 0.78 | 0.00 | 92 | 1014.4 |
| 20260505012039 | 41 | 14 | 1.0 | 4.0 | 0.00 | 0.78 | 0.00 | 92 | 1014.4 |
| 20260505011133 | 42 | 27 | 1.0 | 4.0 | 0.00 | 0.78 | 0.00 | 91 | 1014.6 |
| 20260505010108 | 42 | 353 | 2.0 | 4.0 | 0.00 | 0.78 | 0.00 | 90 | 1014.7 |
| 20260505005104 | 42 | 356 | 3.0 | 7.0 | 0.00 | 0.78 | 0.00 | 89 | 1014.8 |
| 20260505004059 | 43 | 324 | 5.0 | 9.0 | 0.00 | 0.78 | 0.00 | 89 | 1014.9 |
| 20260505003054 | 42 | 9 | 4.0 | 7.0 | 0.00 | 0.78 | 0.00 | 89 | 1015.1 |
| 20260505002048 | 43 | 28 | 4.0 | 8.0 | 0.00 | 0.78 | 0.00 | 89 | 1015.1 |
| 20260505001103 | 42 | 346 | 7.0 | 14.0 | 0.00 | 0.78 | 0.00 | 89 | 1015.2 |
| 20260505000038 | 43 | 307 | 6.0 | 11.0 | 0.00 | 0.78 | 0.00 | 90 | 1015.5 |
| 20260504235033 | 43 | 272 | 2.0 | 7.0 | 0.00 | 0.78 | 0.00 | 91 | 1015.6 |
| 20260504234028 | 43 | 329 | 3.0 | 7.0 | 0.00 | 0.78 | 0.00 | 91 | 1015.4 |
| 20260504233023 | 43 | 344 | 7.0 | 14.0 | 0.00 | 0.78 | 0.00 | 91 | 1015.2 |
| 20260504232038 | 44 | 337 | 3.0 | 13.0 | 0.00 | 0.78 | 0.00 | 92 | 1015.1 |
| 20260504231115 | 43 | 3 | 7.0 | 13.0 | 0.00 | 0.78 | 0.00 | 93 | 1015.2 |
| 20260504230109 | 44 | 342 | 6.0 | 13.0 | 0.00 | 0.78 | 0.00 | 94 | 1015.1 |
| 20260504225249 | 44 | 12 | 4.0 | 9.0 | 0.00 | 0.78 | 0.00 | 94 | 1015.2 |
| 20260504224119 | 44 | 56 | 6.0 | 11.0 | 0.00 | 0.78 | 0.00 | 94 | 1014.8 |
| 20260504223054 | 44 | 21 | 3.0 | 7.0 | 0.00 | 0.78 | 0.00 | 94 | 1014.9 |
| 20260504222050 | 44 | 25 | 3.0 | 4.0 | 0.00 | 0.78 | 0.00 | 94 | 1014.8 |
| 20260504221104 | 44 | 342 | 3.0 | 6.0 | 0.00 | 0.78 | 0.00 | 94 | 1014.9 |
| 20260504220039 | 45 | 35 | 1.0 | 6.0 | 0.00 | 0.78 | 0.00 | 94 | 1014.8 |
| 20260504215034 | 45 | 19 | 4.0 | 7.0 | 0.00 | 0.78 | 0.78 | 93 | 1014.8 |
| 20260504214029 | 45 | 33 | 7.0 | 11.0 | 0.00 | 0.78 | 0.78 | 93 | 1014.9 |
| 20260504213043 | 45 | 45 | 4.0 | 9.0 | 0.00 | 0.78 | 0.78 | 93 | 1014.9 |
| 20260504212019 | 45 | 40 | 5.0 | 8.0 | 0.00 | 0.78 | 0.78 | 93 | 1015.0 |
| 20260504211114 | 45 | 35 | 4.0 | 8.0 | 0.00 | 0.78 | 0.78 | 93 | 1015.0 |
| 20260504210109 | 46 | 41 | 6.0 | 11.0 | 0.00 | 0.78 | 0.78 | 93 | 1014.9 |
| 20260504205124 | 46 | 45 | 6.0 | 9.0 | 0.00 | 0.78 | 0.78 | 93 | 1014.9 |
| 20260504204058 | 46 | 35 | 4.0 | 8.0 | 0.02 | 0.78 | 0.78 | 94 | 1014.9 |
| 20260504203053 | 46 | 35 | 6.0 | 11.0 | 0.06 | 0.78 | 0.78 | 93 | 1014.6 |
| 20260504202049 | 46 | 36 | 4.0 | 8.0 | 0.08 | 0.78 | 0.78 | 93 | 1014.7 |
| 20260504201044 | 46 | 18 | 3.0 | 6.0 | 0.08 | 0.78 | 0.78 | 92 | 1014.9 |
| 20260504200120 | 46 | 333 | 4.0 | 8.0 | 0.08 | 0.78 | 0.78 | 92 | 1015.0 |
| 20260504195034 | 46 | 358 | 4.0 | 7.0 | 0.08 | 0.78 | 0.78 | 92 | 1014.6 |
| 20260504194029 | 47 | 203 | 2.0 | 4.0 | 0.06 | 0.76 | 0.76 | 90 | 1015.1 |
| 20260504193024 | 47 | 260 | 3.0 | 7.0 | 0.02 | 0.72 | 0.72 | 88 | 1014.9 |
| 20260504192020 | 47 | 24 | 3.0 | 7.0 | 0.00 | 0.70 | 0.70 | 87 | 1014.2 |
| 20260504191114 | 46 | 39 | 9.0 | 13.0 | 0.00 | 0.70 | 0.70 | 87 | 1013.7 |
| 20260504190110 | 46 | 39 | 7.0 | 11.0 | 0.00 | 0.70 | 0.70 | 87 | 1013.6 |
| 20260504185105 | 46 | 45 | 6.0 | 9.0 | 0.00 | 0.70 | 0.70 | 88 | 1013.7 |
| 20260504184100 | 46 | 45 | 6.0 | 11.0 | 0.00 | 0.70 | 0.70 | 89 | 1013.8 |
| 20260504183055 | 46 | 49 | 8.0 | 13.0 | 0.00 | 0.70 | 0.70 | 89 | 1013.8 |
| 20260504182109 | 46 | 56 | 6.0 | 9.0 | 0.09 | 0.70 | 0.70 | 89 | 1013.8 |
| 20260504181044 | 46 | 39 | 5.0 | 8.0 | 0.37 | 0.70 | 0.70 | 91 | 1013.8 |
| 20260504180039 | 46 | 42 | 3.0 | 7.0 | 0.44 | 0.77 | 0.70 | 91 | 1013.8 |
| 20260504175034 | 47 | 339 | 5.0 | 11.0 | 0.44 | 0.77 | 0.70 | 91 | 1013.6 |
| 20260504174030 | 46 | 282 | 9.0 | 18.0 | 0.44 | 0.77 | 0.70 | 90 | 1013.8 |
| 20260504173024 | 44 | 36 | 7.0 | 13.0 | 0.44 | 0.77 | 0.70 | 90 | 1013.9 |
| 20260504172019 | 44 | 233 | 8.0 | 23.0 | 0.34 | 0.67 | 0.60 | 88 | 1014.7 |
| 20260504171114 | 51 | 248 | 12.0 | 24.0 | 0.07 | 0.40 | 0.33 | 79 | 1014.4 |
| 20260504170110 | 52 | 45 | 1.0 | 2.0 | 0.00 | 0.33 | 0.26 | 74 | 1013.7 |
| 20260504151115 | 52 | 35 | 4.0 | 9.0 | 0.00 | 0.41 | 0.26 | 75 | 1013.3 |
| 20260504150110 | 52 | 322 | 7.0 | 9.0 | 0.00 | 0.41 | 0.26 | 77 | 1013.4 |
| 20260504141045 | 50 | 16 | 5.0 | 11.0 | 0.00 | 0.41 | 0.26 | 82 | 1014.2 |
| 20260504130111 | 47 | 11 | 2.0 | 4.0 | 0.05 | 0.41 | 0.26 | 93 | 1014.3 |
| 20260504120122 | 47 | 62 | 5.0 | 8.0 | 0.08 | 0.37 | 0.21 | 93 | 1014.6 |
| 20260504110110 | 47 | 42 | 6.0 | 9.0 | 0.01 | 0.28 | 0.13 | 91 | 1014.9 |
| 20260504090112 | 51 | 206 | 4.0 | 8.0 | 0.00 | 0.21 | 0.00 | 83 | 1014.2 |
| 20260504081046 | 50 | 229 | 5.0 | 8.0 | 0.00 | 0.24 | 0.00 | 84 | 1013.9 |
| 20260504070112 | 48 | 207 | 3.0 | 6.0 | 0.00 | 0.24 | 0.00 | 92 | 1013.8 |